Weather History for Boothville, LA

Change the Weather History Date:

Tuesday, December 11, 2012

  Actual Average Record
Temperature  
Mean Temperature 52 °F -  
Max Temperature 55 °F - - ()
Min Temperature 50 °F - - ()
Degree Days  
Heating Degree Days 12    
Growing Degree Days 2 (Base 50)    
Moisture  
Dew Point 46 °F    
Average Humidity 82    
Maximum Humidity 89    
Minimum Humidity 76    
Precipitation  
Precipitation 0.11 in - - ()
Sea Level Pressure  
Sea Level Pressure 30.06 in    
Wind  
Wind Speed 9 mph (North)    
Max Wind Speed 15 mph    
Max Gust Speed 23 mph    
Visibility 10 miles    
Events Rain    
T = Trace of Precipitation, MM = Missing Value Source: NWS Daily Summary

Daily Weather History Graph

Daily Weather History Graph

Search for Another Location

Airport:

Trip Planner

Search our weather history database for the weather conditions in past years. The results will help you decide how hot, cold, wet, or windy it might be!

Date:

Astronomy

Dec. 11, 2012 Rise Set
Actual Time 6:42 AM CST 5:00 PM CST
Civil Twilight 6:16 AM CST 5:26 PM CST
Nautical Twilight 5:46 AM CST 5:55 PM CST
Astronomical Twilight 5:17 AM CST 6:24 PM CST
Moon 4:41 AM CST (12/11) 3:36 PM CST (12/11)
Length of Visible Light 11h 10m
Length of Day
10h 17m
Waning Crescent, 4% of the Moon is Illuminated
Dec 11
Waning Crescent
Dec 13
New
Dec 19
First Quarter
Dec 28
Full
Jan 4
Last Quarter

Hourly Weather History & Observations

Time (CST) Temp. Dew Point Humidity Pressure Visibility Wind Dir Wind Speed Gust Speed Precip Events Conditions
12:51 AM 55.0 °F 51.1 °F 86% 29.98 in 10.0 mi North 9.2 mph - N/A   Overcast
1:51 AM 53.1 °F 48.9 °F 86% 29.96 in 10.0 mi North 11.5 mph 18.4 mph N/A   Overcast
2:51 AM 52.0 °F 48.0 °F 86% 29.96 in 10.0 mi North 13.8 mph 20.7 mph N/A   Overcast
3:37 AM 51.8 °F 46.4 °F 82% 29.99 in 10.0 mi NNW 15.0 mph 23.0 mph N/A   Overcast
3:51 AM 51.1 °F 46.0 °F 83% 29.99 in 10.0 mi North 11.5 mph 20.7 mph N/A   Overcast
4:51 AM 51.1 °F 45.0 °F 80% 30.00 in 10.0 mi North 12.7 mph 19.6 mph N/A   Overcast
5:51 AM 51.1 °F 45.0 °F 80% 30.01 in 10.0 mi North 6.9 mph 23.0 mph N/A   Overcast
6:11 AM 51.8 °F 44.6 °F 76% 30.02 in 10.0 mi North 8.1 mph 18.4 mph N/A   Overcast
6:23 AM 50.0 °F 44.6 °F 82% 30.02 in 10.0 mi North 11.5 mph 21.9 mph N/A   Overcast
6:34 AM 50.0 °F 44.6 °F 82% 30.02 in 10.0 mi North 11.5 mph 21.9 mph N/A   Overcast
6:51 AM 50.0 °F 45.0 °F 83% 30.03 in 10.0 mi North 9.2 mph 18.4 mph N/A   Overcast
7:51 AM 50.0 °F 45.0 °F 83% 30.06 in 10.0 mi North 8.1 mph 20.7 mph N/A   Overcast
8:10 AM 50.0 °F 44.6 °F 82% 30.08 in 10.0 mi North 6.9 mph 17.3 mph N/A   Overcast
8:51 AM 51.1 °F 44.1 °F 77% 30.09 in 10.0 mi NNE 9.2 mph - N/A   Mostly Cloudy
9:51 AM 52.0 °F 45.0 °F 77% 30.10 in 10.0 mi NNE 8.1 mph - N/A   Clear
10:51 AM 53.1 °F 46.0 °F 77% 30.10 in 10.0 mi North 8.1 mph 16.1 mph N/A   Partly Cloudy
11:30 AM 53.6 °F 46.4 °F 77% 30.08 in 10.0 mi North 6.9 mph - N/A   Mostly Cloudy
11:51 AM 53.1 °F 46.9 °F 80% 30.07 in 10.0 mi North 8.1 mph - N/A   Scattered Clouds
12:04 PM 53.6 °F 46.4 °F 77% 30.06 in 10.0 mi North 6.9 mph - N/A   Mostly Cloudy
12:51 PM 52.0 °F 46.0 °F 80% 30.04 in 10.0 mi North 6.9 mph - N/A   Mostly Cloudy
1:51 PM 52.0 °F 46.0 °F 80% 30.03 in 10.0 mi NNE 9.2 mph - N/A   Overcast
2:01 PM 51.8 °F 46.4 °F 82% 30.02 in 10.0 mi North 5.8 mph - N/A   Overcast
2:19 PM 51.8 °F 46.4 °F 82% 30.03 in 10.0 mi NNE 8.1 mph 16.1 mph N/A   Overcast
2:51 PM 52.0 °F 46.0 °F 80% 30.04 in 10.0 mi North 6.9 mph - 0.00 in Rain Light Rain
3:07 PM 51.8 °F 48.2 °F 88% 30.10 in 4.0 mi Calm Calm - 0.01 in Rain Light Rain
3:17 PM 51.8 °F 48.2 °F 88% 30.09 in 7.0 mi Calm Calm - 0.02 in Rain Light Rain
3:51 PM 51.1 °F 48.0 °F 89% 30.07 in 10.0 mi Variable 4.6 mph - 0.02 in Rain Light Rain
4:51 PM 51.1 °F 46.9 °F 86% 30.07 in 10.0 mi North 8.1 mph - 0.01 in Rain Light Rain
5:51 PM 51.1 °F 46.9 °F 86% 30.09 in 8.0 mi Variable 5.8 mph - 0.02 in Rain Light Rain
6:51 PM 51.1 °F 46.9 °F 86% 30.08 in 8.0 mi NNE 10.4 mph 20.7 mph 0.06 in Rain Light Rain
7:48 PM 51.8 °F 46.4 °F 82% 30.11 in 10.0 mi NNE 8.1 mph - 0.00 in Rain Light Rain
7:51 PM 51.1 °F 46.0 °F 83% 30.12 in 10.0 mi North 8.1 mph - 0.00 in Rain Light Rain
8:12 PM 51.8 °F 46.4 °F 82% 30.11 in 10.0 mi NNE 9.2 mph - 0.00 in Rain Light Rain
8:40 PM 51.8 °F 46.4 °F 82% 30.13 in 10.0 mi NE 6.9 mph - 0.00 in   Mostly Cloudy
8:51 PM 52.0 °F 46.0 °F 80% 30.14 in 10.0 mi NE 6.9 mph - 0.00 in   Overcast
9:51 PM 52.0 °F 46.9 °F 83% 30.15 in 10.0 mi NNE 6.9 mph - N/A   Mostly Cloudy
10:51 PM 52.0 °F 46.9 °F 83% 30.13 in 10.0 mi NNE 10.4 mph - N/A   Mostly Cloudy
11:05 PM 51.8 °F 46.4 °F 82% 30.13 in 10.0 mi NNE 9.2 mph - N/A   Scattered Clouds
11:27 PM 51.8 °F 46.4 °F 82% 30.14 in 10.0 mi NNE 10.4 mph - N/A   Mostly Cloudy
11:51 PM 52.0 °F 46.9 °F 83% 30.13 in 10.0 mi NNE 9.2 mph - N/A   Mostly Cloudy